Location: Unspecified
(64.9000°N, 0.0000°E)
Time: 00:09:38
(UTC+00:00)

A-11 Canister half - Pass Details

Date: 23 June 2019
Orbit: 1526 x 1683 km, 47.3° (Epoch: 19 July)

Event Time Altitude Azimuth Distance (km) Brightness Sun altitude
Rises 04:31:06 0° 205° (SSW) 4,727 11.1 12.1°
Reaches altitude 10° 04:35:22 10° 189° (S) 3,724 10.7 12.5°
Maximum altitude 04:41:10 19° 150° (SSE) 3,079 10.7 13.0°
Drops below altitude 10° 04:46:56 10° 110° (ESE) 3,697 11.8 13.6°
Sets 04:51:08 0° 94° (E) 4,681 12.7 14.0°
